Temp
-8 -8 -8 -8 -8 -8 -8 -8 -8 -8 -8 -7 -7 -7 -7 -7 -7 -7 -7 -7 -7 -7 -7 -7 -6 -6 -6 -6 -8 -7 -9 -8 -11 -10 -10 -9 -9 -10 -10 -9 -8 -9 -8 -9 -10
-8 -8 -8 -8 -8 -8 -8 -8 -8 -8 -8 -7 -7 -7 -7 -7 -7 -7 -7 -7 -7 -7 -7 -7 -7 -7 -7 -7 -7 -8 -8 -9 -10 -11 -9 -10 -10 -11 -10 -9 -9 -8 -10 -10 -11
-8 -8 -8 -8 -8 -8 -8 -8 -8 -8 -8 -8 -7 -7 -7 -7 -7 -7 -7 -7 -7 -7 -7 -7 -7 -7 -6 -7 -8 -8 -8 -9 -11 -10 -10 -11 -11 -11 -10 -9 -8 -9 -9 -10 -11
-8 -8 -8 -8 -8 -8 -8 -8 -8 -8 -8 -8 -7 -7 -7 -7 -7 -7 -7 -7 -7 -7 -7 -7 -7 -7 -7 -7 -7 -9 -9 -10 -11 -9 -10 -11 -11 -10 -10 -10 -10 -9 -9 -9 -10
-8 -8 -8 -8 -8 -8 -8 -8 -8 -8 -8 -7 -7 -7 -7 -7 -7 -7 -7 -7 -7 -7 -7 -8 -8 -7 -7 -7 -8 -11 -10 -10 -10 -9 -10 -10 -11 -11 -11 -11 -10 -10 -10 -10 -10
-8 -8 -8 -8 -8 -8 -8 -8 -8 -8 -7 -7 -7 -7 -7 -7 -7 -7 -7 -7 -7 -7 -7 -7 -7 -7 -8 -8 -9 -11 -10 -10 -8 -9 -10 -9 -10 -11 -10 -10 -10 -11 -11 -11 -10
-8 -8 -8 -8 -8 -8 -8 -8 -8 -8 -8 -8 -7 -7 -7 -7 -7 -7 -7 -7 -7 -7 -7 -7 -7 -7 -8 -8 -8 -9 -9 -9 -8 -9 -9 -10 -10 -10 -10 -10 -11 -11 -11 -12 -11
-8 -8 -8 -8 -8 -8 -8 -8 -8 -8 -8 -8 -7 -7 -7 -7 -7 -7 -7 -7 -8 -8 -8 -8 -8 -8 -8 -9 -8 -8 -9 -9 -10 -9 -9 -9 -10 -11 -10 -9 -10 -11 -11 -11 -11
-8 -8 -8 -8 -8 -8 -8 -8 -8 -8 -8 -8 -8 -8 -7 -8 -8 -8 -8 -8 -8 -8 -8 -8 -8 -8 -9 -9 -9 -9 -10 -10 -11 -11 -11 -10 -11 -10 -10 -10 -10 -11 -11 -11 -11
-9 -8 -8 -8 -8 -8 -8 -8 -8 -8 -8 -8 -8 -8 -8 -8 -8 -8 -8 -8 -8 -8 -8 -8 -9 -9 -9 -9 -9 -10 -11 -11 -11 -11 -11 -11 -11 -11 -11 -11 -11 -11 -12 -12 -11
-9 -9 -9 -9 -9 -8 -8 -8 -8 -8 -8 -8 -8 -8 -8 -8 -8 -8 -8 -8 -8 -8 -8 -9 -9 -9 -10 -10 -11 -11 -11 -11 -11 -11 -11 -11 -12 -11 -11 -11 -11 -11 -12 -12 -12
-9 -9 -9 -9 -9 -9 -9 -9 -8 -8 -8 -8 -8 -8 -8 -8 -8 -8 -8 -8 -8 -9 -9 -9 -9 -11 -11 -11 -11 -11 -11 -11 -11 -11 -11 -11 -11 -11 -11 -11 -11 -11 -12 -13 -13
-9 -9 -9 -9 -9 -9 -9 -9 -9 -8 -8 -8 -9 -8 -9 -9 -9 -9 -9 -9 -9 -9 -9 -9 -11 -11 -11 -11 -11 -11 -11 -11 -11 -12 -12 -12 -12 -12 -12 -12 -12 -12 -13 -13 -13
-10 -10 -9 -9 -9 -9 -9 -9 -9 -9 -9 -9 -9 -9 -9 -9 -9 -9 -9 -9 -9 -9 -9 -11 -12 -11 -10 -11 -12 -12 -12 -12 -12 -12 -12 -12 -11 -11 -12 -12 -13 -13 -13 -13 -13
-10 -10 -10 -10 -10 -9 -9 -9 -9 -9 -9 -9 -9 -9 -10 -10 -9 -10 -10 -10 -10 -10 -10 -11 -10 -10 -11 -11 -11 -11 -11 -11 -11 -12 -11 -11 -12 -12 -12 -12 -13 -12 -13 -13 -12
-10 -10 -10 -10 -10 -10 -10 -10 -10 -10 -10 -10 -10 -10 -10 -10 -10 -10 -10 -10 -10 -10 -11 -11 -12 -12 -12 -12 -12 -12 -12 -12 -12 -12 -12 -12 -12 -11 -13 -13 -13 -12 -12 -13 -13
-10 -10 -10 -10 -10 -10 -10 -10 -10 -11 -11 -11 -12 -10 -10 -10 -10 -11 -10 -10 -10 -10 -11 -11 -12 -13 -12 -11 -12 -12 -12 -11 -12 -13 -13 -12 -12 -13 -12 -12 -12 -12 -11 -13 -12
-11 -11 -11 -11 -11 -11 -11 -10 -11 -11 -11 -12 -12 -12 -11 -11 -12 -12 -11 -11 -11 -10 -11 -12 -12 -13 -13 -13 -12 -12 -13 -13 -12 -12 -13 -13 -13 -14 -13 -13 -13 -12 -13 -13 -13
-11 -11 -11 -11 -11 -11 -11 -11 -12 -11 -11 -11 -12 -12 -12 -13 -13 -12 -12 -12 -12 -11 -11 -12 -12 -13 -12 -13 -12 -13 -13 -14 -13 -13 -13 -13 -13 -13 -13 -13 -13 -13 -13 -14 -14
-11 -11 -11 -12 -11 -11 -11 -12 -12 -12 -11 -11 -12 -12 -12 -12 -12 -12 -12 -12 -12 -11 -11 -13 -11 -12 -13 -13 -13 -12 -13 -13 -14 -13 -13 -13 -14 -13 -13 -14 -13 -13 -14 -14 -14
-11 -11 -12 -12 -12 -12 -12 -12 -12 -12 -11 -12 -12 -12 -12 -12 -12 -12 -12 -12 -11 -11 -11 -11 -11 -12 -13 -13 -12 -13 -13 -13 -13 -14 -14 -14 -14 -14 -14 -14 -14 -14 -14 -14 -14
-11 -11 -11 -11 -11 -12 -12 -13 -13 -12 -12 -12 -12 -12 -12 -12 -12 -12 -12 -12 -12 -12 -12 -12 -12 -12 -12 -13 -13 -12 -13 -14 -14 -13 -14 -15 -14 -15 -14 -14 -14 -13 -14 -14 -14
-12 -12 -12 -12 -12 -13 -12 -12 -12 -12 -12 -12 -12 -12 -12 -12 -12 -12 -13 -12 -12 -12 -12 -12 -12 -12 -12 -13 -13 -13 -14 -13 -14 -14 -14 -15 -15 -15 -15 -15 -15 -14 -14 -14 -14
-12 -12 -12 -12 -12 -12 -12 -13 -12 -12 -12 -13 -12 -12 -12 -13 -13 -12 -13 -13 -12 -12 -12 -13 -13 -12 -12 -13 -13 -13 -13 -14 -14 -15 -15 -15 -15 -15 -14 -15 -15 -14 -14 -15 -15
-13 -13 -12 -12 -12 -12 -12 -13 -13 -13 -13 -12 -13 -13 -13 -13 -13 -13 -13 -13 -12 -13 -12 -13 -13 -13 -13 -13 -13 -14 -14 -14 -15 -15 -15 -15 -15 -15 -15 -15 -15 -15 -16 -16 -15
-13 -13 -13 -13 -13 -13 -13 -13 -14 -14 -14 -13 -12 -13 -13 -13 -13 -13 -13 -13 -14 -13 -13 -13 -13 -13 -13 -13 -13 -13 -14 -14 -14 -15 -15 -15 -15 -15 -15 -15 -16 -16 -16 -16 -15
-13 -14 -14 -14 -14 -13 -13 -13 -14 -13 -13 -13 -13 -13 -13 -13 -14 -13 -13 -14 -14 -14 -14 -14 -13 -13 -13 -13 -14 -14 -14 -14 -15 -15 -15 -16 -16 -16 -16 -17 -16 -16 -16 -15 -16
Height
5873 5873 5875 5876 5878 5880 5882 5884 5887 5889 5891 5893 5894 5896 5897 5898 5900 5900 5900 5901 5901 5901 5902 5902 5903 5903 5903 5902 5904 5904 5907 5906 5908 5912 5904 5902 5898 5905 5906 5903 5900 5902 5902 5902 5900
5873 5874 5875 5877 5879 5881 5883 5885 5887 5889 5891 5892 5894 5895 5896 5897 5899 5899 5900 5900 5900 5901 5901 5901 5902 5903 5902 5903 5904 5906 5906 5905 5908 5914 5908 5898 5904 5907 5905 5899 5899 5901 5902 5900 5898
5874 5875 5876 5878 5880 5882 5884 5886 5888 5889 5891 5892 5892 5893 5894 5896 5898 5897 5898 5899 5899 5899 5900 5900 5901 5902 5902 5903 5904 5907 5905 5905 5906 5909 5914 5910 5909 5905 5902 5899 5896 5896 5902 5901 5897
5875 5875 5876 5878 5880 5882 5884 5886 5887 5888 5890 5890 5891 5892 5893 5896 5899 5897 5897 5897 5897 5897 5898 5899 5900 5901 5902 5903 5904 5906 5905 5905 5906 5905 5912 5912 5904 5901 5897 5896 5894 5893 5896 5898 5895
5875 5876 5877 5878 5880 5882 5883 5885 5886 5887 5888 5889 5890 5891 5893 5895 5896 5896 5896 5896 5896 5895 5896 5897 5899 5898 5898 5899 5899 5902 5904 5905 5902 5905 5907 5909 5903 5901 5899 5894 5894 5894 5891 5894 5890
5876 5877 5878 5879 5880 5881 5882 5884 5885 5886 5887 5888 5889 5890 5892 5894 5894 5894 5894 5894 5894 5894 5895 5895 5896 5897 5897 5896 5897 5901 5902 5900 5900 5902 5903 5905 5902 5895 5899 5899 5892 5894 5891 5889 5884
5876 5877 5878 5878 5880 5881 5882 5883 5884 5885 5886 5887 5888 5889 5890 5891 5892 5892 5893 5893 5893 5894 5894 5895 5895 5895 5894 5895 5894 5895 5896 5897 5897 5898 5898 5902 5902 5896 5896 5895 5895 5892 5891 5884 5881
5875 5876 5877 5878 5879 5880 5881 5882 5883 5884 5885 5886 5887 5888 5889 5890 5890 5891 5891 5891 5892 5892 5893 5893 5893 5893 5893 5892 5892 5893 5894 5895 5895 5893 5891 5894 5897 5893 5890 5890 5888 5887 5887 5879 5876
5874 5875 5876 5877 5878 5879 5881 5882 5882 5883 5884 5885 5886 5886 5887 5888 5888 5888 5889 5890 5890 5890 5890 5890 5890 5890 5890 5890 5890 5891 5891 5891 5890 5891 5888 5889 5889 5885 5886 5886 5885 5883 5880 5874 5870
5874 5874 5875 5876 5877 5878 5879 5880 5881 5882 5883 5883 5884 5886 5886 5886 5886 5886 5886 5887 5887 5888 5888 5887 5887 5887 5887 5886 5887 5886 5886 5888 5888 5887 5884 5886 5884 5882 5882 5881 5880 5878 5875 5868 5865
5874 5874 5875 5875 5876 5877 5878 5879 5880 5881 5881 5882 5882 5883 5883 5884 5884 5884 5884 5884 5885 5885 5884 5884 5884 5883 5883 5882 5882 5884 5884 5885 5883 5882 5882 5880 5881 5878 5877 5877 5875 5874 5872 5864 5859
5873 5874 5874 5875 5875 5876 5876 5877 5878 5879 5880 5880 5880 5881 5881 5882 5882 5882 5882 5882 5882 5881 5881 5881 5880 5878 5879 5880 5879 5880 5880 5881 5881 5880 5880 5877 5875 5877 5872 5870 5869 5868 5867 5860 5855
5871 5872 5873 5874 5874 5875 5876 5876 5876 5877 5879 5879 5879 5878 5879 5880 5879 5880 5880 5879 5879 5878 5877 5877 5877 5875 5875 5876 5877 5877 5875 5874 5877 5874 5872 5871 5869 5872 5873 5868 5862 5860 5858 5853 5851
5869 5870 5871 5872 5873 5873 5874 5875 5875 5876 5876 5877 5877 5877 5877 5877 5877 5877 5877 5877 5876 5875 5874 5875 5873 5871 5873 5873 5871 5872 5868 5868 5870 5867 5866 5865 5862 5864 5862 5861 5857 5851 5851 5848 5845
5867 5868 5869 5870 5870 5871 5872 5872 5873 5873 5874 5876 5877 5875 5876 5875 5875 5875 5874 5874 5873 5872 5872 5871 5869 5869 5870 5866 5866 5867 5863 5863 5863 5863 5861 5863 5857 5854 5854 5851 5846 5842 5841 5839 5838
5864 5865 5866 5867 5868 5869 5869 5870 5871 5873 5872 5872 5872 5872 5873 5872 5872 5873 5873 5871 5870 5869 5868 5868 5866 5865 5865 5864 5862 5860 5860 5857 5856 5856 5855 5852 5846 5846 5844 5838 5830 5829 5833 5833 5833
5862 5863 5864 5864 5866 5867 5867 5868 5870 5870 5872 5871 5869 5869 5870 5869 5869 5869 5869 5867 5866 5866 5864 5863 5862 5858 5858 5860 5858 5855 5851 5851 5850 5849 5847 5844 5838 5838 5836 5827 5828 5824 5825 5823 5823
5859 5860 5861 5862 5862 5863 5864 5867 5868 5867 5866 5868 5869 5868 5869 5869 5867 5867 5865 5864 5862 5861 5861 5860 5861 5856 5852 5852 5851 5852 5849 5847 5843 5845 5845 5840 5834 5831 5831 5831 5826 5825 5822 5819 5817
5854 5856 5857 5858 5859 5860 5862 5864 5862 5861 5862 5861 5866 5867 5867 5865 5864 5862 5862 5858 5855 5856 5857 5856 5855 5852 5850 5847 5847 5847 5846 5843 5839 5839 5839 5840 5832 5827 5827 5825 5825 5821 5821 5817 5811
5849 5851 5852 5854 5855 5857 5859 5859 5860 5857 5860 5860 5862 5862 5862 5860 5859 5858 5857 5853 5853 5852 5852 5849 5847 5849 5845 5844 5843 5840 5840 5837 5835 5833 5833 5834 5826 5821 5820 5817 5813 5813 5812 5810 5807
5843 5844 5846 5849 5851 5852 5855 5854 5851 5848 5857 5857 5857 5858 5857 5858 5853 5853 5852 5849 5849 5847 5847 5843 5843 5845 5842 5838 5835 5835 5833 5830 5829 5828 5827 5826 5825 5820 5815 5812 5810 5807 5802 5799 5796
5837 5836 5840 5841 5845 5846 5849 5846 5847 5847 5849 5851 5851 5851 5850 5850 5851 5850 5847 5843 5844 5842 5841 5838 5836 5836 5837 5833 5831 5829 5830 5827 5823 5823 5823 5819 5817 5812 5805 5805 5802 5800 5794 5791 5788
5830 5832 5828 5834 5837 5837 5837 5838 5839 5841 5841 5843 5842 5843 5843 5843 5843 5842 5841 5837 5838 5835 5834 5833 5831 5830 5831 5828 5825 5824 5823 5821 5818 5816 5815 5813 5811 5802 5797 5795 5793 5786 5783 5782 5780
5822 5824 5817 5826 5826 5827 5830 5832 5833 5831 5834 5833 5834 5836 5835 5835 5834 5834 5834 5829 5829 5830 5830 5828 5827 5824 5824 5823 5818 5818 5816 5816 5811 5809 5808 5805 5802 5794 5791 5789 5784 5780 5778 5777 5770
5810 5810 5812 5815 5817 5824 5823 5824 5826 5825 5823 5826 5827 5828 5825 5825 5828 5827 5825 5823 5823 5823 5823 5823 5821 5820 5818 5816 5814 5810 5809 5808 5804 5802 5799 5796 5793 5787 5783 5781 5780 5778 5774 5766 5760
5794 5801 5809 5807 5808 5815 5816 5817 5815 5816 5814 5816 5819 5819 5821 5819 5818 5820 5821 5821 5816 5813 5814 5813 5814 5813 5813 5810 5807 5805 5803 5800 5796 5793 5794 5786 5779 5780 5777 5776 5772 5768 5763 5758 5754
5789 5793 5795 5800 5799 5804 5808 5805 5805 5805 5809 5810 5808 5812 5812 5813 5814 5813 5814 5814 5813 5809 5808 5808 5804 5804 5805 5803 5801 5799 5795 5792 5787 5784 5782 5780 5774 5770 5770 5770 5765 5760 5759 5754 5745
Wind_Speed
1 2 5 5 8 9 11 12 12 11 10 8 6 6 8 8 6 3 3 4 5 6 6 4 2 3 5 5 4 9 18 13 19 20 20 23 19 19 23 32 34 24 18 18 19
1 1 6 7 8 10 11 12 12 11 10 8 7 7 8 8 5 4 4 5 5 6 7 7 3 2 6 4 6 8 20 16 12 12 17 21 11 17 26 32 31 19 12 12 17
2 1 6 8 8 10 11 11 11 10 9 9 8 8 8 8 4 8 5 5 7 7 9 9 6 4 1 2 10 20 14 10 6 12 15 12 12 21 27 31 29 30 16 10 17
3 3 6 9 9 9 10 10 9 9 9 8 8 8 8 7 4 7 6 6 6 7 8 9 8 7 5 7 8 16 11 9 9 15 14 17 16 25 32 35 30 33 25 14 22
3 3 4 6 8 8 8 8 8 8 7 6 7 7 7 6 9 9 8 7 5 6 8 9 9 10 9 9 2 9 6 10 17 6 11 26 15 19 26 33 35 27 28 25 28
3 3 4 5 6 7 7 7 7 6 6 6 6 7 7 5 8 7 7 6 5 6 7 10 10 9 9 10 9 13 16 17 15 11 17 16 32 35 39 32 32 26 30 31 36
3 3 3 3 3 4 5 5 5 5 5 6 6 6 6 6 6 7 6 5 5 6 8 9 10 10 14 13 11 15 20 18 17 14 18 18 23 30 31 31 28 29 30 34 39
5 5 4 4 4 4 5 5 6 5 5 5 5 5 5 5 6 6 6 6 7 8 9 11 12 11 10 14 16 12 12 10 11 16 21 17 11 22 28 31 32 26 29 34 30
3 5 7 7 7 6 6 6 7 7 7 6 6 6 7 8 9 9 9 9 10 10 11 12 13 13 14 16 17 10 3 15 19 14 27 27 28 30 25 25 29 32 28 32 35
2 2 3 5 7 8 9 10 9 9 9 9 9 9 8 7 8 8 8 9 9 10 11 13 13 14 14 17 14 4 9 19 22 20 24 27 32 33 28 30 33 28 29 33 37
2 2 3 3 3 4 5 6 6 6 6 6 6 7 7 8 8 8 8 9 10 11 12 12 12 15 14 12 7 10 16 17 22 23 20 26 26 33 31 41 42 32 30 33 39
5 5 4 4 4 5 5 5 5 5 4 5 5 9 7 7 7 8 9 10 11 12 12 12 10 11 15 13 14 14 19 23 23 21 24 31 35 31 38 42 40 35 27 30 33
7 7 6 6 5 5 6 6 6 5 5 6 9 7 7 8 9 8 10 11 12 11 12 12 8 16 20 21 17 19 21 27 19 19 28 31 40 33 29 24 35 35 35 34 36
9 9 8 8 7 6 6 9 7 8 8 7 5 6 7 8 9 9 10 10 11 12 11 5 10 21 20 22 22 23 26 25 22 28 31 35 40 33 37 24 31 45 42 36 37
11 11 10 10 9 9 9 9 8 8 10 6 4 8 7 11 10 7 8 11 11 13 11 11 18 19 16 19 20 23 30 29 29 35 38 34 40 42 36 30 39 40 44 34 40
11 11 11 10 10 10 9 9 9 8 8 12 9 10 10 11 9 6 5 8 9 11 12 12 14 13 15 16 18 23 21 27 27 26 33 30 36 34 34 42 45 25 23 19 32
13 13 13 13 12 12 12 11 10 7 5 7 10 13 9 9 9 13 11 16 16 14 11 12 10 18 20 19 22 22 24 19 14 16 20 23 26 27 24 28 28 5 18 27 23
15 15 14 14 13 13 14 12 8 10 7 9 12 13 12 7 16 16 17 16 20 18 16 17 13 20 26 27 25 22 25 26 26 20 19 26 31 28 24 27 31 40 41 38 34
18 17 16 15 14 14 14 12 17 20 17 17 16 18 7 9 18 19 16 18 18 23 23 20 17 24 25 27 24 22 19 22 26 23 22 19 28 33 27 28 24 31 34 38 41
20 20 20 18 17 16 14 14 17 23 22 24 17 16 15 17 13 11 15 23 22 29 26 27 24 17 24 26 27 28 23 22 25 27 25 18 30 36 37 35 42 43 38 40 43
23 24 23 23 22 21 16 19 25 27 16 19 21 20 22 19 26 25 27 31 30 30 24 27 24 16 20 24 27 25 31 24 22 16 24 29 28 33 33 37 43 44 45 46 49
27 29 26 26 26 25 22 27 27 28 27 24 25 24 27 27 26 27 28 33 32 30 24 25 26 22 19 22 24 24 24 29 29 34 30 29 31 37 45 45 46 47 47 44 45
30 29 34 27 27 31 32 34 34 33 34 30 32 30 31 31 30 30 28 33 29 28 26 23 24 23 18 24 23 24 21 24 29 32 29 30 25 36 39 40 39 44 45 44 45
32 31 40 30 33 34 33 34 33 35 32 34 33 29 32 31 31 31 26 31 29 24 21 24 22 24 23 22 26 24 27 24 26 31 33 33 32 36 38 38 44 49 50 47 41
39 39 40 36 37 30 32 34 31 33 35 32 32 30 32 34 30 31 29 29 30 26 22 22 22 25 25 26 24 26 27 30 31 35 30 34 32 35 41 37 46 41 43 42 43
41 41 35 36 37 31 32 31 35 34 38 37 32 32 31 33 32 29 29 28 32 35 32 30 28 28 22 26 28 28 26 29 31 31 33 40 44 42 42 42 40 38 38 41 46
31 27 32 34 37 34 32 36 37 39 37 36 38 32 33 33 34 34 31 30 31 35 35 33 35 34 29 30 28 27 25 29 33 34 34 31 37 39 36 41 39 38 37 42 50
Wind_Direction
231 235 203 186 178 178 177 177 178 178 182 190 201 211 209 198 185 199 247 257 260 247 255 257 254 110 88 122 174 179 166 106 43 354 307 295 331 315 301 312 292 293 317 289 293
227 244 196 189 180 177 178 179 183 190 198 210 227 234 216 206 193 256 278 281 265 250 241 241 233 282 105 111 137 189 158 106 58 346 305 327 306 317 310 297 293 295 353 315 301
211 157 183 184 184 182 183 187 194 200 214 234 245 228 214 204 195 253 278 278 275 254 238 241 242 255 226 137 150 172 167 145 63 249 253 268 320 292 282 283 289 301 316 296 301
206 171 171 184 187 191 193 198 206 220 236 242 229 219 216 216 241 262 277 276 260 243 238 243 246 244 240 225 173 168 205 191 270 251 213 227 300 290 291 287 287 294 300 292 296
186 175 171 185 197 203 207 214 223 227 228 227 224 229 236 249 266 270 274 268 249 248 241 240 241 243 239 253 215 289 276 235 259 237 259 205 244 262 270 278 278 292 296 292 288
174 173 168 181 188 196 203 207 213 219 225 230 236 245 257 262 277 273 276 278 266 248 240 244 251 260 268 261 217 233 247 248 273 253 241 239 221 242 253 269 277 284 289 290 286
189 178 171 172 184 193 198 207 217 225 231 236 241 249 256 259 261 265 274 277 278 265 263 261 261 261 261 272 256 232 242 260 283 284 257 256 249 260 268 268 269 276 281 282 285
220 214 207 202 202 204 207 216 225 232 237 240 243 250 265 265 262 270 273 274 270 270 271 274 276 274 272 261 273 270 279 304 307 302 294 288 261 282 283 285 284 285 287 286 284
201 220 229 229 226 223 225 230 234 233 234 240 249 254 268 272 275 274 274 274 275 275 276 277 280 282 280 281 278 280 305 345 338 315 293 292 288 286 294 302 292 283 287 291 290
191 196 210 225 231 235 237 239 244 250 254 259 268 273 267 272 278 282 284 282 279 279 280 280 280 280 278 279 280 225 319 307 301 272 280 260 274 290 295 302 293 290 288 285 291
227 212 213 216 214 216 225 232 237 246 256 264 272 275 280 286 286 283 281 281 285 284 281 277 275 265 263 275 298 211 248 250 260 280 290 288 283 281 283 292 295 293 288 286 289
254 258 261 256 246 237 232 234 237 238 261 275 289 283 295 289 283 283 286 290 290 289 287 280 274 299 297 289 267 277 256 242 248 271 276 270 277 280 286 292 291 287 282 278 289
250 257 265 265 261 255 249 238 242 246 260 275 272 289 294 295 291 285 290 293 295 295 291 300 242 252 265 279 275 270 274 249 245 270 274 268 264 271 273 288 284 279 286 276 281
254 255 258 261 260 258 254 268 266 276 275 272 282 291 297 295 302 298 301 297 296 291 299 288 231 261 283 288 271 261 260 251 229 233 248 256 277 275 283 264 269 266 265 274 282
252 254 256 259 257 257 257 262 273 281 289 273 267 291 293 298 293 301 293 297 300 300 304 267 264 294 298 282 287 266 264 281 265 246 259 270 273 273 273 263 264 250 261 258 268
249 248 248 251 254 255 256 258 261 266 287 296 293 300 297 291 290 300 294 302 305 301 289 271 278 275 297 306 306 301 287 271 274 264 264 271 266 278 270 267 257 260 273 271 274
247 248 249 249 249 253 250 252 257 256 272 289 289 300 302 308 314 322 324 322 316 314 321 313 288 283 294 302 297 304 310 302 278 241 265 276 313 320 313 315 260 154 230 296 281
252 252 251 252 252 248 251 250 234 223 243 229 242 272 291 286 291 301 306 315 305 311 331 317 290 279 290 292 296 302 299 301 290 269 281 286 298 301 291 282 286 294 282 288 288
251 251 251 251 252 250 249 240 224 218 229 230 258 276 279 302 274 288 297 311 293 310 319 307 288 279 284 283 297 297 295 286 285 285 282 282 282 284 301 287 282 277 294 292 298
254 251 250 248 247 249 250 240 246 245 243 244 253 254 253 249 266 273 287 283 278 295 312 299 297 279 275 280 283 287 296 269 269 283 287 268 266 273 283 289 297 297 296 293 293
252 252 246 248 247 247 241 246 247 254 260 253 261 265 270 260 262 270 275 279 287 293 300 293 297 293 279 274 291 287 284 268 275 272 283 285 274 273 276 284 284 284 289 293 292
254 254 254 254 249 247 244 246 252 263 263 265 265 268 268 271 271 272 273 278 286 291 288 287 290 290 285 272 278 286 288 288 291 285 285 287 287 281 279 281 279 280 284 287 291
256 257 262 240 247 246 242 246 253 256 263 264 268 270 272 276 275 275 275 279 284 284 285 287 291 293 291 286 283 283 276 282 281 290 290 287 287 294 288 286 291 285 287 293 304
253 252 255 252 244 242 248 251 257 264 262 264 265 269 273 272 273 275 276 277 279 285 286 289 293 293 297 290 290 283 282 282 293 287 288 285 286 280 286 280 277 281 286 303 301
254 251 252 260 255 255 258 258 262 265 269 259 266 261 261 269 272 272 271 280 292 297 285 279 287 291 294 295 288 284 283 278 272 276 277 291 271 273 279 277 289 298 299 297 304
251 251 249 255 256 251 252 251 251 249 255 268 265 266 267 271 271 271 276 285 288 290 294 293 291 285 291 295 295 292 294 288 281 282 262 273 277 266 268 289 303 297 298 304 307
253 253 249 247 255 253 250 252 249 254 258 262 268 269 269 266 273 277 275 274 277 283 288 294 292 292 295 296 296 297 288 284 279 278 280 273 283 283 287 295 294 295 302 303 304